Location: Lake Arresoe
(56.0000°N, 12.5000°E)
Time: 15:51:19
(UTC+02:00)

Resurs 1-4 Rocket - Pass Details

Date: 03 August 2021
Orbit: 799 x 814 km, 98.6° (Epoch: 27 September)

Event Time Altitude Azimuth Distance (km) Brightness Sun altitude
Rises 01:45:20 0° 22° (NNE) 3,347 6.9 -16.2°
Reaches altitude 10° 01:48:06 10° 35° (NE) 2,408 5.5 -16.2°
Maximum altitude 01:52:28 25° 91° (E) 1,582 3.7 -16.1°
Enters shadow 01:56:15 12° 142° (SE) 2,226 4.0 -16.0°
